TimeCDT,TemperatureF,Dew PointF,Humidity,Sea Level PressureIn,VisibilityMPH,Wind Direction,Wind SpeedMPH,Gust SpeedMPH,PrecipitationIn,Events,Conditions,WindDirDegrees,DateUTC
12:53 AM,75.9,69.1,79,29.96,10.0,SSE,13.8,-,N/A,,Clear,160,2013-06-23 05:53:00
1:53 AM,75.0,68.0,79,29.94,10.0,South,11.5,-,N/A,,Clear,180,2013-06-23 06:53:00
2:53 AM,73.9,68.0,82,29.92,10.0,SSE,13.8,-,N/A,,Clear,160,2013-06-23 07:53:00
3:53 AM,72.0,66.9,84,29.93,10.0,South,8.1,-,N/A,,Clear,170,2013-06-23 08:53:00
4:53 AM,72.0,68.0,87,29.94,10.0,South,9.2,-,N/A,,Clear,190,2013-06-23 09:53:00
5:53 AM,71.1,68.0,90,29.94,9.0,South,8.1,-,N/A,,Clear,180,2013-06-23 10:53:00
6:53 AM,73.0,69.1,87,29.94,10.0,South,9.2,-,N/A,,Clear,180,2013-06-23 11:53:00
7:53 AM,77.0,70.0,79,29.94,10.0,South,11.5,-,N/A,,Clear,190,2013-06-23 12:53:00
8:53 AM,80.1,71.1,74,29.94,10.0,South,18.4,-,N/A,,Clear,190,2013-06-23 13:53:00
9:53 AM,82.9,72.0,69,29.96,10.0,SSW,15.0,24.2,N/A,,Clear,210,2013-06-23 14:53:00
10:53 AM,87.1,72.0,61,29.96,10.0,SSW,15.0,21.9,N/A,,Clear,210,2013-06-23 15:53:00
11:53 AM,88.0,71.1,57,29.96,10.0,SSW,16.1,21.9,N/A,,Partly Cloudy,210,2013-06-23 16:53:00
12:53 PM,89.1,73.9,61,29.94,10.0,South,18.4,25.3,N/A,,Clear,190,2013-06-23 17:53:00
1:53 PM,90.0,73.9,59,29.92,10.0,South,20.7,25.3,N/A,,Partly Cloudy,190,2013-06-23 18:53:00
2:53 PM,87.1,72.0,61,29.91,10.0,South,9.2,20.7,N/A,,Partly Cloudy,190,2013-06-23 19:53:00
3:53 PM,73.9,66.9,79,29.96,10.0,NE,13.8,31.1,N/A,,Mostly Cloudy,50,2013-06-23 20:53:00
4:53 PM,75.0,64.9,71,29.93,10.0,East,9.2,-,N/A,,Clear,90,2013-06-23 21:53:00
5:53 PM,78.1,66.9,68,29.86,10.0,SE,19.6,26.5,N/A,,Clear,140,2013-06-23 22:53:00
6:53 PM,80.1,68.0,67,29.90,10.0,SE,12.7,19.6,N/A,,Clear,130,2013-06-23 23:53:00
7:53 PM,78.1,66.9,68,29.92,10.0,SSE,13.8,-,N/A,,Clear,150,2013-06-24 00:53:00
8:53 PM,75.9,66.9,74,29.93,10.0,SSE,11.5,-,N/A,,Clear,150,2013-06-24 01:53:00
9:53 PM,75.9,68.0,76,29.95,10.0,SSE,11.5,-,N/A,,Clear,150,2013-06-24 02:53:00
10:53 PM,75.9,69.1,79,29.97,10.0,SE,12.7,-,N/A,,Clear,140,2013-06-24 03:53:00
11:53 PM,77.0,70.0,79,29.97,10.0,SSE,11.5,-,N/A,,Clear,160,2013-06-24 04:53:00